Гульрипш

Georgia     42˚57′00″N   41˚06′00″E
temp.,
°C
wind,
m/s
gust,
m/s
humid.,
%
clouds,
%
prec.,
mm/h
press.,
hPa
HPBL,
m
30 november, mon
mon3001:00+9˚ene23450 0.0 102274
04:00+9˚nne33400 0.0 102250
07:00+9˚ne22420 0.0 102164
10:00+10˚ne22370 0.0 102062
13:00+14˚sw11350 0.0 1019222
16:00+13˚sw11450 0.0 1017127
19:00+11˚nne22550 0.0 101847
22:00+10˚ne22470 0.0 101844
1 december, tue
tue101:00+9˚ene22460 0.0 101771
04:00+9˚ne22470 0.0 101769
07:00+9˚ene22490 0.0 101879
10:00+10˚ne11490 0.0 101880
13:00+13˚s11430 0.0 1017222
16:00+13˚sw01450 0.0 1017133
19:00+11˚ne22540 0.0 101952
22:00+10˚ne225236 0.0 102164
2 december, wed
wed201:00+10˚ne2248100 0.0 102162
04:00+9˚ne224790 0.0 102167
07:00+10˚ene224997 0.0 102173
10:00+11˚n114986 0.0 102173
13:00+14˚wsw114442 0.0 1020210
16:00+13˚wsw115371 0.0 1021116
19:00+11˚n115998 0.0 1021104
22:00+11˚ene116395 0.0 102252
3 december, thu
thu301:00+11˚ne125884 0.0 102346
04:00+10˚n225979 0.0 102382
07:00+10˚e226188 0.0 102388
10:00+11˚e125979 0.0 102494
13:00+13˚sse115128 0.0 1023258
16:00+13˚sw115527 0.0 1022162
19:00+11˚nne11650 0.0 102355
22:00+11˚ne22630 0.0 102344
4 december, fri
fri401:00+10˚ene226121 0.0 102478
04:00+9˚ene126111 0.0 102396
07:00+9˚ne12580 0.0 102254
10:00+11˚ene11530 0.0 102364
13:00+14˚ssw11470 0.0 1021199
16:00+13˚w11520 0.0 1020120
19:00+11˚nne22630 0.0 102145
22:00+11˚ne22540 0.0 102144